Weather History for Buckeye, AZ

Change the Weather History Date:

Friday, July 26, 2013

  Actual Average (KGYR) Record (KGYR)
Temperature  
Mean Temperature 93 °F -  
Max Temperature 102 °F 101 °F 113 °F (1998)
Min Temperature 84 °F 79 °F 77 °F (1996)
Cooling Degree Days 28    
Growing Degree Days 43 (Base 50)    
Moisture  
Dew Point 67 °F    
Average Humidity 46    
Maximum Humidity 70    
Minimum Humidity 27    
Precipitation  
Precipitation 0.00 in - - ()
Sea Level Pressure  
Sea Level Pressure 29.97 in    
Wind  
Wind Speed 3 mph (SSE)    
Max Wind Speed 10 mph    
Max Gust Speed -    
Visibility 10 miles    
Events      
Averages and records for this station are not official NWS values.
T = Trace of Precipitation, MM = Missing Value Source: NWS Daily Summary

Daily Weather History Graph

Daily Weather History Graph

Search for Another Location

Airport:

Trip Planner

Search our weather history database for the weather conditions in past years. The results will help you decide how hot, cold, wet, or windy it might be!

Date:

Astronomy

Jul. 26, 2013 Rise Set
Actual Time 5:39 AM MST 7:34 PM MST
Civil Twilight 5:11 AM MST 8:02 PM MST
Nautical Twilight 4:38 AM MST 8:35 PM MST
Astronomical Twilight 4:02 AM MST 9:10 PM MST
Moon 10:09 PM MST (7/26) 10:02 AM MST (7/26)
Length of Visible Light 14h 50m
Length of Day
13h 55m
Waning Gibbous, 79% of the Moon is Illuminated
Jul 26
Waning Gibbous
Jul 29
Last Quarter
Aug 6
New
Aug 14
First Quarter
Aug 20
Full

Hourly Weather History & Observations

Time (MST) Temp. Heat Index Dew Point Humidity Pressure Visibility Wind Dir Wind Speed Gust Speed Precip Events Conditions
12:15 AM 86.0 °F 91.8 °F 71.6 °F 62% 29.95 in 10.0 mi Calm Calm - N/A   Mostly Cloudy
12:35 AM 86.0 °F 91.8 °F 71.6 °F 62% 29.95 in 10.0 mi Calm Calm - N/A   Overcast
12:55 AM 86.0 °F 90.4 °F 69.8 °F 58% 29.95 in 10.0 mi Calm Calm - N/A   Overcast
1:15 AM 86.0 °F 91.8 °F 71.6 °F 62% 29.95 in 10.0 mi NNW 3.5 mph - N/A   Overcast
1:35 AM 86.0 °F 91.8 °F 71.6 °F 62% 29.95 in 10.0 mi WSW 3.5 mph - N/A   Overcast
1:55 AM 86.0 °F 90.4 °F 69.8 °F 58% 29.95 in 10.0 mi Calm Calm - N/A   Overcast
2:15 AM 86.0 °F 91.8 °F 71.6 °F 62% 29.96 in 10.0 mi Calm Calm - N/A   Overcast
2:35 AM 84.2 °F 89.6 °F 71.6 °F 66% 29.95 in 10.0 mi Calm Calm - N/A   Overcast
2:55 AM 84.2 °F 89.6 °F 71.6 °F 66% 29.95 in 10.0 mi Calm Calm - N/A   Overcast
3:15 AM 84.2 °F 89.6 °F 71.6 °F 66% 29.96 in 10.0 mi Calm Calm - N/A   Overcast
3:35 AM 84.2 °F 89.6 °F 71.6 °F 66% 29.96 in 10.0 mi South 4.6 mph - N/A   Overcast
3:55 AM 84.2 °F 89.6 °F 71.6 °F 66% 29.96 in 10.0 mi Calm Calm - N/A   Overcast
4:15 AM 84.2 °F 89.6 °F 71.6 °F 66% 29.97 in 10.0 mi East 4.6 mph - N/A   Overcast
4:35 AM 84.2 °F 88.4 °F 69.8 °F 62% 29.97 in 10.0 mi Calm Calm - N/A   Overcast
4:55 AM 84.2 °F 88.4 °F 69.8 °F 62% 29.98 in 10.0 mi Calm Calm - N/A   Overcast
5:15 AM 84.2 °F 89.6 °F 71.6 °F 66% 29.99 in 10.0 mi Calm Calm - N/A   Overcast
5:35 AM 84.2 °F 87.3 °F 68.0 °F 58% 29.99 in 10.0 mi Calm Calm - N/A   Overcast
5:55 AM 86.0 °F 90.4 °F 69.8 °F 58% 30.00 in 10.0 mi NNE 3.5 mph - N/A   Overcast
6:15 AM 86.0 °F 90.4 °F 69.8 °F 58% 30.01 in 10.0 mi NE 3.5 mph - N/A   Mostly Cloudy
6:35 AM 86.0 °F 90.4 °F 69.8 °F 58% 30.01 in 10.0 mi ESE 3.5 mph - N/A   Mostly Cloudy
6:55 AM 84.2 °F 89.6 °F 71.6 °F 66% 30.01 in 10.0 mi Calm Calm - N/A   Mostly Cloudy
7:15 AM 84.2 °F 89.6 °F 71.6 °F 66% 30.02 in 9.0 mi SSE 4.6 mph - N/A   Scattered Clouds
7:35 AM 84.2 °F 90.9 °F 73.4 °F 70% 30.03 in 8.0 mi SE 3.5 mph - N/A   Mostly Cloudy
7:55 AM 84.2 °F 90.9 °F 73.4 °F 70% 30.03 in 7.0 mi ENE 8.1 mph - N/A   Scattered Clouds
8:15 AM 86.0 °F 93.4 °F 73.4 °F 66% 30.04 in 10.0 mi NE 9.2 mph - N/A   Clear
8:35 AM 86.0 °F 91.8 °F 71.6 °F 62% 30.04 in 10.0 mi NNE 3.5 mph - N/A   Clear
8:55 AM 87.8 °F 92.6 °F 69.8 °F 55% 30.05 in 10.0 mi NNE 3.5 mph - N/A   Partly Cloudy
9:15 AM 89.6 °F 94.7 °F 69.8 °F 52% 30.05 in 10.0 mi North 3.5 mph - N/A   Partly Cloudy
9:35 AM 89.6 °F 94.7 °F 69.8 °F 52% 30.04 in 10.0 mi NW 4.6 mph - N/A   Scattered Clouds
9:55 AM 89.6 °F 96.2 °F 71.6 °F 55% 30.05 in 10.0 mi NW 5.8 mph - N/A   Overcast
10:15 AM 89.6 °F 94.7 °F 69.8 °F 52% 30.05 in 10.0 mi NNW 6.9 mph - N/A   Scattered Clouds
10:35 AM 89.6 °F 94.7 °F 69.8 °F 52% 30.05 in 10.0 mi NNW 8.1 mph - N/A   Scattered Clouds
10:55 AM 91.4 °F 95.4 °F 68.0 °F 46% 30.05 in 10.0 mi WNW 6.9 mph - N/A   Partly Cloudy
11:15 AM 93.2 °F 97.7 °F 68.0 °F 44% 30.04 in 10.0 mi WSW 3.5 mph - N/A   Clear
11:35 AM 93.2 °F 97.7 °F 68.0 °F 44% 30.03 in 10.0 mi Calm Calm - N/A   Clear
11:55 AM 93.2 °F 97.7 °F 68.0 °F 44% 30.03 in 10.0 mi SSE 6.9 mph - N/A   Clear
12:15 PM 95.0 °F 98.5 °F 66.2 °F 39% 30.02 in 10.0 mi ESE 5.8 mph - N/A   Partly Cloudy
12:35 PM 96.8 °F 100.7 °F 66.2 °F 37% 30.01 in 10.0 mi SSE 8.1 mph - N/A   Partly Cloudy
12:55 PM 96.8 °F 100.7 °F 66.2 °F 37% 30.01 in 10.0 mi SSW 4.6 mph - N/A   Clear
1:15 PM 96.8 °F 99.0 °F 64.4 °F 34% 30.00 in 10.0 mi SSE 6.9 mph - N/A   Clear
1:35 PM 98.6 °F 99.4 °F 60.8 °F 29% 29.99 in 10.0 mi WNW 4.6 mph - N/A   Clear
1:55 PM 98.6 °F 101.0 °F 64.4 °F 32% 29.98 in 10.0 mi South 9.2 mph - N/A   Clear
2:15 PM 98.6 °F 100.0 °F 62.6 °F 30% 29.97 in 10.0 mi WSW 3.5 mph - N/A   Clear
2:35 PM 100.4 °F 101.3 °F 60.8 °F 27% 29.96 in 10.0 mi West 10.4 mph - N/A   Clear
2:55 PM 100.4 °F 101.3 °F 60.8 °F 27% 29.95 in 10.0 mi SSE 4.6 mph - N/A   Clear
3:15 PM 100.4 °F 101.3 °F 60.8 °F 27% 29.94 in 10.0 mi SW 9.2 mph - N/A   Clear
3:35 PM 102.2 °F 104.2 °F 62.6 °F 27% 29.94 in 10.0 mi South 9.2 mph - N/A   Clear
3:55 PM 100.4 °F 102.4 °F 62.6 °F 29% 29.93 in 10.0 mi SSE 5.8 mph - N/A   Clear
4:15 PM 100.4 °F 102.4 °F 62.6 °F 29% 29.92 in 10.0 mi SE 9.2 mph - N/A   Clear
4:35 PM 100.4 °F 102.4 °F 62.6 °F 29% 29.92 in 10.0 mi East 8.1 mph - N/A   Clear
4:55 PM 100.4 °F 102.4 °F 62.6 °F 29% 29.91 in 10.0 mi ESE 5.8 mph - N/A   Clear
5:15 PM 100.4 °F 102.4 °F 62.6 °F 29% 29.91 in 10.0 mi SE 8.1 mph - N/A   Clear
5:35 PM 100.4 °F 102.4 °F 62.6 °F 29% 29.90 in 10.0 mi SE 4.6 mph - N/A   Clear
5:55 PM 100.4 °F 102.4 °F 62.6 °F 29% 29.89 in 10.0 mi ESE 4.6 mph - N/A   Clear
6:15 PM 100.4 °F 102.4 °F 62.6 °F 29% 29.89 in 10.0 mi SE 6.9 mph - N/A   Clear
6:35 PM 100.4 °F 102.4 °F 62.6 °F 29% 29.89 in 10.0 mi SE 5.8 mph - N/A   Clear
6:55 PM 100.4 °F 103.6 °F 64.4 °F 31% 29.89 in 10.0 mi SE 4.6 mph - N/A   Clear
7:15 PM 98.6 °F 101.0 °F 64.4 °F 32% 29.89 in 10.0 mi SE 4.6 mph - N/A   Clear
7:35 PM 98.6 °F 101.0 °F 64.4 °F 32% 29.89 in 10.0 mi SE 3.5 mph - N/A   Clear
7:55 PM 96.8 °F 100.7 °F 66.2 °F 37% 29.90 in 10.0 mi ESE 4.6 mph - N/A   Clear
8:15 PM 96.8 °F 100.7 °F 66.2 °F 37% 29.91 in 10.0 mi ESE 4.6 mph - N/A   Clear
8:35 PM 95.0 °F 98.5 °F 66.2 °F 39% 29.92 in 10.0 mi East 4.6 mph - N/A   Scattered Clouds
8:55 PM 95.0 °F 98.5 °F 66.2 °F 39% 29.92 in 10.0 mi ESE 4.6 mph - N/A   Scattered Clouds
9:15 PM 93.2 °F 96.2 °F 66.2 °F 41% 29.93 in 10.0 mi SE 3.5 mph - N/A   Partly Cloudy
9:35 PM 93.2 °F 96.2 °F 66.2 °F 41% 29.93 in 10.0 mi SSW 3.5 mph - N/A   Scattered Clouds
9:55 PM 91.4 °F 94.0 °F 66.2 °F 43% 29.94 in 10.0 mi SSW 3.5 mph - N/A   Partly Cloudy
10:15 PM 91.4 °F 93.2 °F 64.4 °F 41% 29.94 in 10.0 mi SW 4.6 mph - N/A   Clear
10:35 PM 91.4 °F 92.1 °F 62.6 °F 38% 29.94 in 10.0 mi West 6.9 mph - N/A   Clear
10:55 PM 93.2 °F 93.3 °F 60.8 °F 34% 29.94 in 10.0 mi WSW 5.8 mph - N/A   Clear
11:15 PM 91.4 °F 92.1 °F 62.6 °F 38% 29.95 in 10.0 mi West 5.8 mph - N/A   Mostly Cloudy
11:35 PM 91.4 °F 92.1 °F 62.6 °F 38% 29.94 in 10.0 mi West 4.6 mph - N/A   Overcast
11:55 PM 91.4 °F 92.1 °F 62.6 °F 38% 29.94 in 10.0 mi West 3.5 mph - N/A   Mostly Cloudy